N0ZMJ-4 Weather Reports


Display with metric or nautical units.
time (UTC)temp
F
wind
direction
speed
MPH
gust
MPH
rain 1hr
in
rain 24hr
in
rain mn
in
humidity
%
barometer
mb
20260904024003 78 148 0.0 1.0 0.00 0.00 0.00 88 1007.3
20260904023503 78 148 0.0 1.0 0.00 0.00 0.00 88 1007.2
20260904023003 78 148 0.0 3.0 0.00 0.00 0.00 87 1007.1
20260904022503 78 148 0.0 3.0 0.00 0.00 0.00 87 1007.2
20260904022003 79 146 0.0 1.0 0.00 0.00 0.00 87 1007.2
20260904021503 79 146 0.0 1.0 0.00 0.00 0.00 87 1007.1
20260904021003 79 146 0.0 2.0 0.00 0.00 0.00 86 1007.0
20260904020503 79 146 0.0 2.0 0.00 0.00 0.00 86 1006.9
20260904020004 80 146 0.0 2.0 0.00 0.00 0.00 85 1006.8
20260904015503 80 146 0.0 2.0 0.00 0.00 0.00 85 1006.8
20260904015002 80 146 0.0 2.0 0.00 0.00 0.00 85 1006.7
20260904014503 81 146 0.0 1.0 0.00 0.00 0.00 84 1006.7
20260904014002 81 146 0.0 1.0 0.00 0.00 0.00 84 1006.6
20260904013503 81 146 0.0 1.0 0.00 0.00 0.00 85 1006.5
20260904013002 82 146 0.0 1.0 0.00 0.00 0.00 84 1006.4
20260904012503 82 146 0.0 0.0 0.00 0.00 0.00 83 1006.5
20260904012003 82 146 0.0 0.0 0.00 0.00 0.00 83 1006.3
20260904011503 83 146 0.0 0.0 0.00 0.00 0.00 82 1006.3
20260904011002 83 146 0.0 0.0 0.00 0.00 0.00 81 1006.2
20260904010503 84 146 0.0 0.0 0.00 0.00 0.00 80 1006.2
20260904010003 84 146 0.0 1.0 0.00 0.00 0.00 79 1006.2
20260904005503 84 146 0.0 1.0 0.00 0.00 0.00 78 1006.2
20260904005003 85 146 0.0 1.0 0.00 0.00 0.00 77 1006.1
20260904004503 85 146 0.0 1.0 0.00 0.00 0.00 76 1006.1
20260904004003 86 146 0.0 1.0 0.00 0.00 0.00 75 1006.2
20260904003503 86 146 0.0 2.0 0.00 0.00 0.00 74 1006.1
20260904003003 86 146 0.0 3.0 0.00 0.00 0.00 74 1006.1
20260904002502 86 148 1.0 3.0 0.00 0.00 0.00 73 1006.1
20260904002003 86 151 0.0 3.0 0.00 0.00 0.00 72 1006.0
20260904001502 87 151 1.0 3.0 0.00 0.00 0.00 72 1005.9
20260904001003 87 151 0.0 2.0 0.00 0.00 0.00 71 1006.0
20260904000502 87 151 0.0 2.0 0.00 0.00 0.00 70 1006.0
20260904000003 87 151 0.0 2.0 0.00 0.00 0.00 70 1006.0
20260903235503 88 151 0.0 3.0 0.00 0.00 0.00 69 1006.0
20260903235003 88 151 1.0 4.0 0.00 0.00 0.00 68 1006.0
20260903234503 88 151 1.0 4.0 0.00 0.00 0.00 67 1006.0
20260903234003 88 130 0.0 3.0 0.00 0.00 0.00 67 1006.0
20260903233503 88 130 1.0 3.0 0.00 0.00 0.00 66 1006.1
20260903233003 88 129 1.0 7.0 0.00 0.00 0.00 66 1006.0
20260903232503 89 177 2.0 7.0 0.00 0.00 0.00 65 1006.0
20260903232003 89 216 1.0 9.0 0.00 0.00 0.00 64 1006.0
20260903231503 89 178 2.0 9.0 0.00 0.00 0.00 62 1005.8
20260903231003 89 202 2.0 6.0 0.00 0.00 0.00 62 1005.8
20260903230503 89 214 2.0 8.0 0.00 0.00 0.00 60 1005.9
20260903230003 89 164 3.0 8.0 0.00 0.00 0.00 59 1005.9
20260903225503 89 205 3.0 11.0 0.00 0.00 0.00 58 1005.8
20260903225002 89 207 2.0 11.0 0.00 0.00 0.00 58 1005.8
20260903224503 90 231 2.0 11.0 0.00 0.00 0.00 58 1005.7
20260903224002 90 238 4.0 11.0 0.00 0.00 0.00 58 1005.8
20260903223503 90 222 4.0 10.0 0.00 0.00 0.00 57 1005.7
20260903223002 90 228 3.0 11.0 0.00 0.00 0.00 57 1005.7
20260903222503 90 231 3.0 11.0 0.00 0.00 0.00 57 1005.6
20260903222002 90 205 3.0 10.0 0.00 0.00 0.00 57 1005.6
20260903221503 90 206 3.0 14.0 0.00 0.00 0.00 57 1005.6
20260903221002 91 226 4.0 14.0 0.00 0.00 0.00 56 1005.5
20260903220503 91 224 3.0 11.0 0.00 0.00 0.00 56 1005.6
20260903220003 91 244 3.0 11.0 0.00 0.00 0.00 57 1005.6
20260903215503 91 226 4.0 12.0 0.00 0.00 0.00 56 1005.4
20260903215003 92 239 2.0 12.0 0.00 0.00 0.00 58 1005.4
20260903214503 92 223 5.0 12.0 0.00 0.00 0.00 57 1005.4
20260903214003 92 228 6.0 10.0 0.00 0.00 0.00 56 1005.5
20260903213502 92 242 3.0 9.0 0.00 0.00 0.00 61 1005.3
20260903213004 92 203 2.0 13.0 0.00 0.00 0.00 62 1005.4
20260903212502 92 216 2.0 13.0 0.00 0.00 0.00 59 1005.3
20260903212003 92 231 6.0 12.0 0.00 0.00 0.00 55 1005.2
20260903211502 92 233 4.0 12.0 0.00 0.00 0.00 59 1005.2
20260903211003 92 225 4.0 11.0 0.00 0.00 0.00 57 1005.3
20260903210502 92 235 3.0 12.0 0.00 0.00 0.00 58 1005.2
20260903210003 92 189 1.0 12.0 0.00 0.00 0.00 61 1005.2
20260903205502 91 180 2.0 9.0 0.00 0.00 0.00 62 1005.2
20260903205003 91 219 3.0 9.0 0.00 0.00 0.00 63 1005.0
20260903204503 91 196 3.0 9.0 0.00 0.00 0.00 64 1005.1
20260903204003 91 168 2.0 7.0 0.00 0.00 0.00 65 1005.0
20260903203503 91 202 2.0 7.0 0.00 0.00 0.00 66 1004.9
20260903203003 91 206 2.0 7.0 0.00 0.00 0.00 67 1004.9
20260903202503 91 156 2.0 7.0 0.00 0.00 0.00 68 1005.0
20260903202003 90 224 1.0 6.0 0.00 0.00 0.00 68 1005.1
20260903201503 90 203 3.0 6.0 0.00 0.00 0.00 69 1005.2
20260903201003 90 168 2.0 7.0 0.00 0.00 0.00 69 1005.1
20260903200503 90 185 3.0 7.0 0.00 0.00 0.00 69 1005.3
20260903200003 89 192 3.0 9.0 0.00 0.00 0.00 70 1005.3
20260903195503 89 204 4.0 10.0 0.00 0.00 0.00 70 1005.3
20260903195003 89 175 6.0 10.0 0.00 0.00 0.00 69 1005.4
20260903194503 89 162 3.0 10.0 0.00 0.00 0.00 69 1005.5
20260903194003 89 160 3.0 9.0 0.00 0.00 0.00 70 1005.5
20260903193503 89 203 3.0 9.0 0.00 0.00 0.00 71 1005.6
20260903193003 90 154 2.0 9.0 0.00 0.00 0.00 70 1005.6
20260903192503 90 111 3.0 9.0 0.00 0.00 0.00 69 1005.6
20260903192003 90 239 1.0 10.0 0.00 0.00 0.00 70 1005.6
20260903191503 90 181 2.0 10.0 0.00 0.00 0.00 70 1005.7
20260903191002 89 165 3.0 9.0 0.00 0.00 0.00 70 1005.8
20260903190503 89 195 3.0 12.0 0.00 0.00 0.00 70 1005.8
20260903190002 89 172 4.0 12.0 0.00 0.00 0.00 70 1005.8
20260903185503 89 158 4.0 10.0 0.00 0.00 0.00 71 1005.8
20260903185003 89 143 3.0 8.0 0.00 0.00 0.00 72 1006.0
20260903184503 89 130 3.0 8.0 0.00 0.00 0.00 72 1005.8
20260903184003 88 140 2.0 7.0 0.00 0.00 0.00 73 1005.9
20260903183503 88 162 1.0 9.0 0.00 0.00 0.00 73 1005.7
20260903183003 88 163 3.0 9.0 0.00 0.00 0.00 73 1005.7
20260903182503 88 130 4.0 9.0 0.00 0.00 0.00 74 1005.6
20260903182003 87 177 2.0 8.0 0.00 0.00 0.00 74 1005.6
20260903181502 87 158 2.0 7.0 0.00 0.00 0.00 76 1005.7
20260903181003 86 163 2.0 7.0 0.00 0.00 0.00 76 1005.5
20260903180502 86 114 3.0 8.0 0.00 0.00 0.00 76 1005.5
20260903180003 86 94 6.0 8.0 0.00 0.00 0.00 75 1005.5
20260903175503 86 102 3.0 8.0 0.00 0.00 0.00 77 1005.5
20260903175003 86 80 3.0 8.0 0.00 0.00 0.00 77 1005.7
20260903174503 86 94 2.0 8.0 0.00 0.00 0.00 78 1005.8
20260903174003 85 167 3.0 8.0 0.00 0.00 0.00 78 1005.8
20260903173503 85 131 2.0 10.0 0.00 0.00 0.00 79 1005.7
20260903173003 84 102 5.0 10.0 0.00 0.00 0.00 80 1005.7
20260903172503 84 100 3.0 8.0 0.00 0.00 0.00 81 1005.8
20260903172002 84 97 3.0 8.0 0.00 0.00 0.00 81 1005.7
20260903171503 83 84 2.0 8.0 0.00 0.00 0.00 81 1005.6
20260903171002 83 94 5.0 8.0 0.00 0.00 0.00 81 1005.5
20260903170503 82 86 3.0 8.0 0.00 0.00 0.00 82 1005.6
20260903170002 82 97 1.0 7.0 0.00 0.00 0.00 83 1005.9
20260903165503 81 123 3.0 5.0 0.00 0.00 0.00 85 1006.3
20260903165003 81 148 1.0 7.0 0.00 0.00 0.00 86 1006.7
20260903164503 80 84 0.0 7.0 0.00 0.00 0.00 86 1006.6
20260903164002 80 98 4.0 6.0 0.00 0.00 0.00 85 1006.5
20260903163503 80 217 2.0 3.0 0.00 0.00 0.00 86 1007.0
20260903163003 80 100 0.0 4.0 0.00 0.00 0.00 84 1006.6
20260903162503 80 113 2.0 4.0 0.00 0.00 0.00 84 1006.6
20260903162003 80 173 2.0 4.0 0.00 0.00 0.00 84 1007.0
20260903161503 81 137 0.0 2.0 0.00 0.00 0.00 84 1006.8
20260903161003 81 136 1.0 5.0 0.00 0.00 0.00 84 1006.6
20260903160502 81 114 2.0 5.0 0.00 0.00 0.00 83 1006.5
20260903160003 81 172 1.0 5.0 0.00 0.00 0.00 83 1006.5
20260903155502 81 161 1.0 5.0 0.00 0.00 0.00 84 1006.6
20260903155003 81 167 1.0 3.0 0.00 0.00 0.00 84 1006.5
20260903154503 81 117 2.0 3.0 0.00 0.00 0.00 84 1006.3
20260903154003 81 119 1.0 5.0 0.00 0.00 0.00 84 1006.5
20260903153503 80 238 2.0 5.0 0.00 0.00 0.00 84 1006.5
20260903153003 80 211 0.0 4.0 0.00 0.00 0.00 85 1006.5
20260903152503 80 248 1.0 4.0 0.00 0.00 0.00 84 1006.5
20260903152003 80 220 1.0 4.0 0.00 0.00 0.00 84 1006.3
20260903151503 80 175 2.0 4.0 0.00 0.00 0.00 84 1006.4
20260903151003 80 166 2.0 5.0 0.00 0.00 0.00 84 1006.3
20260903150503 80 168 2.0 5.0 0.00 0.00 0.00 85 1006.3
20260903150002 80 175 1.0 5.0 0.00 0.00 0.00 86 1006.2
20260903145503 79 177 2.0 5.0 0.00 0.00 0.00 86 1006.2
20260903145002 79 155 2.0 5.0 0.00 0.00 0.00 86 1006.2
20260903144503 79 205 1.0 5.0 0.00 0.00 0.00 87 1006.3
20260903144002 79 183 1.0 6.0 0.00 0.00 0.00 88 1006.2
20260903143503 78 183 2.0 6.0 0.00 0.00 0.00 89 1006.4
20260903143003 78 170 2.0 6.0 0.00 0.00 0.00 91 1006.6
20260903142503 77 193 2.0 6.0 0.00 0.00 0.00 92 1006.6
20260903142003 77 173 2.0 5.0 0.00 0.00 0.00 93 1006.7
20260903141503 76 144 1.0 5.0 0.00 0.00 0.00 94 1006.8
20260903141003 76 203 1.0 3.0 0.00 0.00 0.00 95 1006.8
20260903140503 75 261 1.0 3.0 0.00 0.00 0.00 96 1006.9
20260903140003 75 214 1.0 5.0 0.00 0.00 0.00 97 1006.8
20260903135503 74 197 1.0 5.0 0.00 0.00 0.00 98 1006.6
20260903135003 74 220 1.0 4.0 0.00 0.00 0.00 99 1006.5
20260903134502 73 185 1.0 4.0 0.00 0.00 0.00 99 1006.7
20260903134003 73 115 0.0 4.0 0.00 0.00 0.00 99 1006.5
20260903133502 72 144 1.0 4.0 0.00 0.00 0.00 99 1006.4
20260903133003 72 148 1.0 5.0 0.00 0.00 0.00 99 1006.5
20260903132502 72 174 2.0 5.0 0.00 0.00 0.00 100 1006.5
20260903132003 72 146 1.0 2.0 0.00 0.00 0.00 100 1006.2
20260903131503 72 146 1.0 3.0 0.00 0.00 0.00 100 1006.2
20260903131003 71 146 1.0 3.0 0.00 0.00 0.00 100 1006.1
20260903130503 71 155 1.0 3.0 0.00 0.00 0.00 100 1006.2
20260903130003 71 110 1.0 4.0 0.00 0.00 0.00 100 1006.2
20260903125503 71 157 1.0 4.0 0.00 0.00 0.00 100 1006.2
20260903125002 71 127 0.0 3.0 0.00 0.00 0.00 100 1006.2
20260903124503 70 109 1.0 3.0 0.00 0.00 0.00 100 1006.0
20260903124002 70 97 0.0 4.0 0.00 0.00 0.00 100 1006.0
20260903123503 70 97 2.0 4.0 0.00 0.00 0.00 100 1006.0
20260903123002 70 97 2.0 4.0 0.00 0.00 0.00 100 1006.0
20260903122503 70 97 1.0 4.0 0.00 0.00 0.00 100 1006.0
20260903122003 70 98 0.0 4.0 0.00 0.00 0.00 100 1006.0
20260903121503 70 97 2.0 4.0 0.00 0.00 0.00 100 1006.0
20260903121003 70 97 1.0 3.0 0.00 0.00 0.00 100 1006.1
20260903120503 70 97 2.0 3.0 0.00 0.00 0.00 100 1005.9
20260903120003 70 97 1.0 3.0 0.00 0.00 0.00 100 1006.2
20260903115503 70 97 1.0 3.0 0.00 0.00 0.00 100 1006.1
20260903115003 70 98 1.0 2.0 0.00 0.00 0.00 100 1006.2
20260903114502 70 97 1.0 2.0 0.00 0.00 0.00 100 1006.3
20260903114003 71 98 0.0 2.0 0.00 0.00 0.00 100 1006.4
20260903113502 71 98 0.0 3.0 0.00 0.00 0.00 100 1006.4
20260903113003 71 98 0.0 4.0 0.00 0.00 0.00 100 1006.5
20260903112502 70 97 2.0 4.0 0.00 0.00 0.00 100 1006.3
20260903112003 70 98 2.0 4.0 0.00 0.00 0.00 100 1006.0
20260903111503 70 98 1.0 2.0 0.00 0.00 0.00 100 1006.2
20260903111003 71 98 0.0 1.0 0.00 0.00 0.00 100 1006.3
20260903110503 71 98 0.0 0.0 0.00 0.00 0.00 100 1006.5
20260903110003 71 98 0.0 0.0 0.00 0.00 0.00 100 1006.4
20260903105503 71 98 0.0 0.0 0.00 0.00 0.00 100 1006.4
20260903105003 71 98 0.0 2.0 0.00 0.00 0.00 100 1006.3
20260903104503 71 98 0.0 4.0 0.00 0.00 0.00 100 1006.2
20260903104004 71 98 1.0 4.0 0.00 0.00 0.00 100 1006.2
20260903103503 71 98 1.0 3.0 0.00 0.00 0.00 100 1006.3
20260903103002 71 98 1.0 4.0 0.00 0.00 0.00 100 1006.3
20260903102503 71 98 2.0 4.0 0.00 0.00 0.00 100 1006.3
20260903102002 71 98 0.0 3.0 0.00 0.00 0.00 100 1006.3
20260903101503 71 85 0.0 3.0 0.00 0.00 0.00 100 1006.4
20260903101003 71 85 1.0 3.0 0.00 0.00 0.00 100 1006.3
20260903100503 71 85 1.0 4.0 0.00 0.00 0.00 100 1006.4
20260903100002 71 85 1.0 4.0 0.00 0.00 0.00 100 1006.4
20260903095503 71 85 1.0 2.0 0.00 0.00 0.00 100 1006.5
20260903095003 71 85 0.0 0.0 0.00 0.00 0.00 100 1006.5
20260903094503 71 85 0.0 0.0 0.00 0.00 0.00 100 1006.6
20260903094003 71 85 0.0 0.0 0.00 0.00 0.00 100 1006.5
20260903093503 71 85 0.0 1.0 0.00 0.00 0.00 100 1006.6
20260903093003 71 85 0.0 1.0 0.00 0.00 0.00 100 1006.5
20260903092502 71 85 0.0 1.0 0.00 0.00 0.00 100 1006.6
20260903092003 71 85 0.0 1.0 0.00 0.00 0.00 100 1006.6
20260903091503 71 85 0.0 1.0 0.00 0.00 0.00 100 1006.6
20260903091003 71 85 0.0 1.0 0.00 0.00 0.00 100 1006.6
20260903090503 71 85 0.0 0.0 0.00 0.00 0.00 100 1006.6
20260903090003 71 85 0.0 0.0 0.00 0.00 0.00 100 1006.7
20260903085503 71 85 0.0 1.0 0.00 0.00 0.00 100 1006.8
20260903085004 71 85 0.0 1.0 0.00 0.00 0.00 100 1006.8
20260903084503 71 85 0.0 0.0 0.00 0.00 0.00 100 1006.8
20260903084002 71 85 0.0 0.0 0.00 0.00 0.00 100 1006.8
20260903083503 71 85 0.0 1.0 0.00 0.00 0.00 100 1006.8
20260903083002 71 85 0.0 1.0 0.00 0.00 0.00 100 1006.8
20260903082503 71 85 0.0 0.0 0.00 0.00 0.00 100 1006.8
20260903082003 72 85 0.0 2.0 0.00 0.00 0.00 100 1006.8
20260903081503 72 85 0.0 2.0 0.00 0.00 0.00 100 1006.8
20260903081003 72 85 0.0 3.0 0.00 0.00 0.00 100 1006.8
20260903080503 72 85 1.0 3.0 0.00 0.00 0.00 100 1007.0
20260903080003 72 85 1.0 4.0 0.00 0.00 0.00 100 1006.8
20260903075503 71 85 2.0 6.0 0.00 0.00 0.00 100 1007.0
20260903075003 71 85 3.0 6.0 0.00 0.00 0.00 100 1006.9
20260903074503 71 86 3.0 5.0 0.00 0.00 0.00 100 1006.8
20260903074003 71 93 4.0 5.0 0.00 0.00 0.00 100 1006.9
20260903073503 71 91 3.0 5.0 0.00 0.00 0.00 100 1007.1
20260903073003 71 90 3.0 5.0 0.00 0.00 0.00 100 1007.1
20260903072502 71 90 2.0 3.0 0.00 0.00 0.00 100 1007.3
20260903072003 71 90 1.0 2.0 0.00 0.00 0.00 100 1007.4
20260903071503 71 90 0.0 1.0 0.00 0.00 0.00 100 1007.6
20260903071003 71 90 0.0 3.0 0.00 0.00 0.00 100 1007.6
20260903070503 71 90 1.0 3.0 0.00 0.00 0.00 100 1007.7
20260903070003 71 90 0.0 2.0 0.00 0.00 0.00 100 1007.7
20260903065503 71 90 0.0 1.0 0.00 0.00 0.00 100 1007.8
20260903065003 71 90 0.0 1.0 0.00 0.00 0.00 100 1007.9
20260903064503 72 90 0.0 1.0 0.00 0.00 0.00 100 1007.8
20260903064003 72 90 0.0 1.0 0.00 0.00 0.00 100 1007.8
20260903063503 72 90 0.0 2.0 0.00 0.00 0.00 100 1007.8
20260903063002 72 90 0.0 2.0 0.00 0.00 0.00 100 1007.8
20260903062503 72 90 1.0 3.0 0.00 0.00 0.00 100 1007.8
20260903062002 72 90 1.0 5.0 0.00 0.00 0.00 100 1007.8
20260903061503 72 90 2.0 5.0 0.00 0.00 0.00 100 1007.7
20260903061002 72 90 3.0 4.0 0.00 0.00 0.00 100 1007.8
20260903060503 72 90 2.0 4.0 0.00 0.00 0.00 100 1007.8
20260903060002 72 90 2.0 4.0 0.00 0.00 0.00 100 1007.8
20260903055503 72 90 2.0 3.0 0.00 0.00 0.00 100 1007.9
20260903055003 72 90 1.0 4.0 0.00 0.00 0.00 100 1007.9
20260903054503 72 90 1.0 4.0 0.00 0.00 0.00 100 1007.9
20260903054003 73 90 0.0 1.0 0.00 0.00 0.00 100 1008.0
20260903053503 73 90 0.0 2.0 0.00 0.00 0.00 100 1008.2
20260903053003 73 90 1.0 3.0 0.00 0.00 0.00 100 1008.2
20260903052503 73 90 1.0 3.0 0.00 0.00 0.00 100 1008.2
20260903052003 73 90 1.0 3.0 0.00 0.00 0.00 100 1008.2
20260903051502 73 90 2.0 4.0 0.00 0.00 0.00 100 1008.2
20260903051003 73 90 2.0 4.0 0.00 0.00 0.00 100 1008.2
20260903050503 73 90 1.0 2.0 0.00 0.00 0.00 100 1008.3
20260903050003 73 90 1.0 2.0 0.00 0.00 0.00 100 1008.4
20260903045502 73 90 0.0 1.0 0.00 0.00 0.00 100 1008.4
20260903045003 73 90 0.0 2.0 0.00 0.00 0.00 100 1008.4
20260903044503 73 90 0.0 2.0 0.00 0.00 0.00 100 1008.5
20260903044003 73 90 1.0 2.0 0.00 0.00 0.00 100 1008.5
20260903043503 73 90 0.0 1.0 0.00 0.00 0.00 100 1008.5
20260903043003 73 90 0.0 1.0 0.00 0.00 0.00 99 1008.6
20260903042503 73 90 0.0 1.0 0.00 0.00 0.00 99 1008.6
20260903042003 74 90 0.0 0.0 0.00 0.00 0.00 99 1008.5
20260903041503 74 90 0.0 1.0 0.00 0.00 0.00 98 1008.6
20260903041003 74 90 0.0 1.0 0.00 0.00 0.00 98 1008.7
20260903040503 74 90 0.0 1.0 0.00 0.00 0.00 97 1008.6
20260903040002 74 90 0.0 0.0 0.00 0.00 0.00 97 1008.7
20260903035503 75 90 0.0 3.0 0.00 0.00 0.00 96 1008.7
20260903035002 75 90 0.0 3.0 0.00 0.00 0.00 96 1008.5
20260903034503 75 90 1.0 3.0 0.00 0.00 0.00 96 1008.4
20260903034002 75 90 0.0 1.0 0.00 0.00 0.00 95 1008.5
20260903033503 76 90 0.0 3.0 0.00 0.00 0.00 95 1008.5
20260903033003 76 90 1.0 3.0 0.00 0.00 0.00 94 1008.5
20260903032503 76 90 2.0 3.0 0.00 0.00 0.00 94 1008.5
20260903032003 76 90 0.0 4.0 0.00 0.00 0.00 94 1008.6
20260903031503 76 90 1.0 4.0 0.00 0.00 0.00 94 1008.5
20260903031003 77 90 2.0 4.0 0.00 0.00 0.00 94 1008.4
20260903030502 77 90 0.0 2.0 0.00 0.00 0.00 92 1008.6
20260903030003 77 90 1.0 2.0 0.00 0.00 0.00 92 1008.7
20260903025502 78 90 0.0 2.0 0.00 0.00 0.00 91 1008.8
20260903025003 78 90 0.0 2.0 0.00 0.00 0.00 91 1008.7
20260903024503 78 90 1.0 2.0 0.00 0.00 0.00 91 1008.8